This is the latest recevied weather packets stored in our database for station/object OK2JCZ-6. If no packets are shown the sender has not sent any weather packets the latest 10 day(s).
| Time | Temp. | Humidity | Pressure | Rain* | Wind** | Luminosity | Snow |
|---|---|---|---|---|---|---|---|
| 1788599604 | 20° C | 47% | 1019.6 hPa | 0 mm | - | - | - |
| 1788598704 | 19.44° C | 49% | 1019.6 hPa | 0 mm | - | - | - |
| 1788598404 | 19.44° C | 52% | 1019.6 hPa | 0 mm | - | - | - |
| 1788598104 | 18.33° C | 53% | 1019.5 hPa | 0 mm | - | - | - |
| 1788597504 | 16.67° C | 57% | 1019.5 hPa | 0 mm | - | - | - |
| 1788597204 | 16.67° C | 59% | 1019.5 hPa | 0 mm | - | - | - |
| 1788596905 | 16.11° C | 60% | 1019.6 hPa | 0 mm | - | - | - |
| 1788596005 | 16.11° C | 61% | 1019.5 hPa | 0 mm | - | - | - |
| 1788595704 | 16.11° C | 62% | 1019.4 hPa | 0 mm | - | - | - |
| 1788595404 | 16.11° C | 62% | 1019.2 hPa | 0 mm | - | - | - |
| 1788595104 | 15.56° C | 62% | 1019.2 hPa | 0 mm | - | - | - |
| 1788594504 | 15° C | 64% | 1019 hPa | 0 mm | - | - | - |
| 1788593605 | 14.44° C | 65% | 1018.7 hPa | 0 mm | - | - | - |
| 1788593004 | 13.89° C | 66% | 1018.4 hPa | 0 mm | - | - | - |
| 1788592704 | 13.89° C | 66% | 1018.2 hPa | 0 mm | - | - | - |
| 1788592404 | 13.89° C | 66% | 1018.2 hPa | 0 mm | - | - | - |
| 1788591804 | 13.89° C | 66% | 1018.4 hPa | 0 mm | - | - | - |
| 1788591504 | 13.33° C | 66% | 1018.6 hPa | 0 mm | - | - | - |
| 1788591204 | 13.33° C | 67% | 1018.4 hPa | 0 mm | - | - | - |
| 1788590304 | 12.78° C | 67% | 1018.5 hPa | 0 mm | - | - | - |
| 1788590004 | 12.78° C | 67% | 1018.7 hPa | 0 mm | - | - | - |
| 1788589704 | 12.78° C | 68% | 1018.6 hPa | 0 mm | - | - | - |
| 1788589404 | 12.78° C | 71% | 1018.2 hPa | 0 mm | - | - | - |
| 1788588804 | 12.78° C | 70% | 1018.2 hPa | 0 mm | - | - | - |
| 1788588504 | 13.33° C | 70% | 1017.9 hPa | 0 mm | - | - | - |
* Rain latest hour (hover to see other rain measurements)
** Current wind speed in m/s (hover to see current wind gust speed)